Voltar ao catálogo

COSMOS 2506 DEB

AtivoSSO
NORAD 47212·DEBRIS·🇷🇺 Russia

Lançado Jun 23, 2015 de Plesetsk Cosmodrome

Loading…

Próximas Passagens (próximas 24 horas)

TLE

AtualizadoSource: Space-Track

Época: Sep 13, 2026, 10:55 UTC

1 47212U 15029C   26256.45544881  .00002848  00000-0  44709-3 0  9992
2 47212  98.1103 329.3184 0006282 200.2080 159.8880 14.73402321310639

Acompanhe COSMOS 2506 DEB em tempo real com AllMySat

Download on the App Store